Regional Weather Roundup
Issued by NWS

Home | Current Version | Previous Version | Graphics & Text | Print | Product List | Glossary On
Versions: 1 2 3 4 5 6 7 8 9 10 11 12 13 14 15 16 17 18 19 20 21 22 23 24 25 26 27 28 29 30 31 32 33 34 35 36 37 38 39 40 41 42 43 44 45 46 47 48 49 50
000
ASUS43 KLSX 160107
RWRMO

WEATHER SUMMARY FOR MISSOURI
NATIONAL WEATHER SERVICE SPRINGFIELD MO
800 PM CDT MON SEP 15 2014

NOTE: "FAIR" INDICATES FEW OR NO CLOUDS BELOW 12,000 FEET WITH NO
       SIGNIFICANT WEATHER AND/OR OBSTRUCTIONS TO VISIBILITY.
       CURRENT SKY AND/OR WEATHER CONDITIONS ARE NOT AVAILABLE FOR
       CHILLICOTHE AND FARMINGTON.

MOZ001>031-035>038-043-044-053-054-160200-
...NORTHERN AND WESTERN MISSOURI...

CITY           SKY/WX    TMP DP  RH WIND       PRES   REMARKS
KANSAS CTY INT MOCLDY    59  52  77 N12       30.21R
KANSAS C DTWN  CLOUDY    63  52  67 NE14      30.19R
LEE`S SUMMIT   CLOUDY    61  53  75 N14G23    30.19R
ST JOSEPH      CLEAR     56  50  80 NE5       30.21S
CHILLICOTHE      N/A     57  51  80 CALM      30.22R
KIRKSVILLE     CLOUDY    57  52  83 N9        30.20R

$$
MOZ066>068-077>081-088>096-101>105-160200-
...SOUTHWEST MISSOURI...

CITY           SKY/WX    TMP DP  RH WIND       PRES   REMARKS
SPRINGFIELD    CLOUDY    73  66  78 N14       30.11R
JOPLIN         CLOUDY    70  68  93 VRB6      30.12R

$$
MOZ032>034-039>042-045>050-055>058-069>072-160200-
...CENTRAL MISSOURI...

CITY           SKY/WX    TMP DP  RH WIND       PRES   REMARKS
COLUMBIA       CLOUDY    64  60  87 N6        30.15R
JEFFERSON CITY CLOUDY    67  59  75 N5        30.14R
ROLLA          CLOUDY    66  62  87 N8        30.11R
SEDALIA        CLOUDY    65  60  84 N13       30.16R
WHITEMAN AFB   CLOUDY    63  59  86 N15       30.16R
OSAGE BEACH    CLOUDY    66  61  82 N7        30.13R

$$
MOZ051-052-059>065-160200-
...EAST CENTRAL MISSOURI...

CITY           SKY/WX    TMP DP  RH WIND       PRES   REMARKS
ST LOUIS INTL  CLOUDY    65  62  90 N10       30.11R
SPIRIT OF STL  CLOUDY    64  62  93 N5        30.11R
ST CHARLES     CLOUDY    63  60  90 N9        30.11R

$$
MOZ072>076-082>087-097>100-106>115-160200-
...SOUTH CENTRAL AND SOUTHEAST MISSOURI...

CITY           SKY/WX    TMP DP  RH WIND       PRES   REMARKS
CAPE GIRARDEAU CLOUDY    71  65  81 S3        30.06R
FARMINGTON     CLOUDY    70  64  83 N6        30.11R
POPLAR BLUFF   CLEAR     68  63  84 SW5       30.06S
WEST PLAINS    PTCLDY    73  66  78 S5        30.10S

$$



USA.gov is the U.S. government's official web portal to all federal, state and local government web resources and services.